Regional Weather Roundup
Issued by NWS

Home | Current Version | Previous Version | Text Only | Print | Product List | Glossary On
Versions: 1 2 3 4 5 6 7 8 9 10 11 12 13 14 15 16 17 18 19 20 21 22 23 24 25 26 27 28 29 30 31 32 33 34 35 36 37 38 39 40 41 42 43 44 45 46 47 48 49 50
000
ASUS42 KFFC 100010
RWRGA
WEATHER ROUNDUP FOR GEORGIA
NATIONAL WEATHER SERVICE PEACHTREE CITY GA
800 PM EDT SUN AUG 09 2020

NOTE: "FAIR" INDICATES FEW OR NO CLOUDS BELOW 12,000 FEET WITH NO
SIGNIFICANT WEATHER AND/OR OBSTRUCTIONS TO VISIBILITY.

* = USE WITH CAUTION. THE STATIONS MARKED WITH AN ASTERISK MAY NOT
REPORT WEATHER SUCH AS PRECIPITATION, FOG, OR THUNDER AND ARE NOT
QUALITY CONTROLLED BY NWS.

THE REMARK "TC" DENOTES TEMPERATURE READING IN DEGREES CELSIUS.

GAZ001>058-100100-
NORTH GEORGIA

CITY           SKY/WX    TMP DP  RH WIND       PRES   REMARKS
ATLANTA        PTCLDY    92  65  40 NW7       30.09R HX  94
6HR MIN TEMP:  91; 6HR MAX TEMP:  96;

ATHENS         PTCLDY    81  69  67 CALM      30.10R
6HR MIN TEMP:  78; 6HR MAX TEMP:  96; 6HR PCP:  0.04;

CHAMBLEE       PTCLDY    82  75  79 S3        30.10R THUNDER
6HR MIN TEMP:  82; 6HR MAX TEMP:  93; 6HR PCP: TRACE;

PEACHTREE CITY PTCLDY    83  76  79 CALM      30.08R HX  91
6HR MIN TEMP:  83; 6HR MAX TEMP:  95;

ROME           PTCLDY    87  72  60 NW3       30.07S HX  93
6HR MIN TEMP:  86; 6HR MAX TEMP:  96;

WEST ATLANTA   PTCLDY    88  67  49 N5        30.08R HX  91
6HR MIN TEMP:  89; 6HR MAX TEMP:  95;

GAINESVILLE    CLEAR     84  71  65 E3        30.13S
6HR MIN TEMP:  84; 6HR MAX TEMP:  91;

CARTERSVILLE   CLEAR     80  76  87 CALM      30.08S
6HR MIN TEMP:  77; 6HR MAX TEMP:  94; 6HR PCP:  0.72;



CITY           SKY/WX    TMP DP  RH WIND       PRES   REMARKS
DALTON*        PTCLDY    77  72  83 CALM      30.10F
LAWRENCEVILLE* PTCLDY    89  67  47 CALM      30.10R HX  92
MARIETTA       PTCLDY    89  68  50 N3        30.09R HX  92
KENNESAW*      CLEAR     87  69  54 NW6       30.11R HX  91
CANTON*        PTCLDY    86  64  48 CALM      30.13R
BLAIRSVILLE*   PTCLDY    77  69  75 S5        30.16S
$$

GAZ059>098-102>109-100100-
CENTRAL GEORGIA

CITY           SKY/WX    TMP DP  RH WIND       PRES   REMARKS
AUGUSTA-BUSH   PTCLDY    88  77  69 CALM      30.06R HX 100
6HR MIN TEMP:  88; 6HR MAX TEMP:  96;

AUGUSTA-DANIEL MOCLDY    87  72  60 CALM      30.09R HX  93
6HR MIN TEMP:  84; 6HR MAX TEMP:  95; 6HR PCP: TRACE;

COLUMBUS       PTCLDY    86  71  60 CALM      30.06S HX  91
6HR MIN TEMP:  83; 6HR MAX TEMP:  96; 6HR PCP:  0.01;

MACON          MOCLDY    85  70  60 S5        30.08R
6HR MIN TEMP:  83; 6HR MAX TEMP:  96; 6HR PCP: TRACE;

ROBINS AFB     MOCLDY    83  74  75 SE3       30.07R HX  90


CITY           SKY/WX    TMP DP  RH WIND       PRES   REMARKS
SYLVANIA*      CLOUDY    78  73  85 SW5       30.11S
MILLEDGEVILLE* MOCLDY    88  73  62 S3        30.08R HX  96
$$

GAZ099>101-110>166-100100-
SOUTH GEORGIA

CITY           SKY/WX    TMP DP  RH WIND       PRES   REMARKS
SAVANNAH       CLOUDY    76  73  91 CALM      30.10S
6HR MIN TEMP:  74; 6HR MAX TEMP:  93; 6HR PCP:  0.06;

VALDOSTA       PTCLDY    87  75  67 CALM      30.08R HX  96
6HR MIN TEMP:  86; 6HR MAX TEMP:  96; 6HR PCP: TRACE;

ALMA           CLOUDY    77  69  76 E5        30.11R
6HR MIN TEMP:  77; 6HR MAX TEMP:  94; 6HR PCP: TRACE;

ST SIMONS      CLOUDY    77  69  76 E9        30.10F THUNDER
6HR MIN TEMP:  71; 6HR MAX TEMP:  91; 6HR PCP:  0.30;

FT STEWART     CLOUDY    74  70  87 W3        30.08S
ALBANY         PTCLDY    92  74  55 SE7       30.08R HX 101
HUNTER AFB     CLOUDY    75  72  91 CALM      30.08R
MOODY AFB      PTCLDY    84  76  76 CALM      30.09R HX  94
BRUNSWICK      CLOUDY    72  69  92 SE6       30.10F


CITY           SKY/WX    TMP DP  RH WIND       PRES   REMARKS
BAINBRIDGE*    PTCLDY    89  74  60 SW8       30.08R HX  97
MOULTRIE*      CLEAR     86  72  62 CALM      30.08S HX  92
VIDALIA*       TSTM      75  70  83 W9        30.12F
WAYCROSS*      CLOUDY    80  71  74 SE7       30.13R
DOUGLAS*       MOCLDY    81  72  76 E5        30.12R
$$




USA.gov is the U.S. government's official web portal to all federal, state and local government web resources and services.